Flag for U.S.A. Weather past 2 weeks in Pontiac, Michigan, U.S.A.

Now
46 °F

Overcast.


Feels Like: 43 °F
Forecast: 44 / 56 °F
Wind: 6 mph from Southwest

Location: Oakland County International Airport

Current Time: Oct 20, 2014 at 12:50:05 AM

Latest Report: Oct 19, 2014 at 10:53 PM


Visibility: 10 mi

Pressure: 29.97 "Hg

Humidity: 63%

Dew point: 34 °F

Location of PontiacLocation

Historic Weather in Pontiac — Graph

°F

Pontiac temperature yesterday

Maximum temperature yesterday: 51 °F (at 4:53 PM)
Minimum temperature yesterday: 31 °F (at 7:53 AM)
Average temperature yesterday: 41 °F

Past Weeks' High & Low Weather Summary

 TemperatureHumidityPressure
High68 °F (Oct 13, 11:53 PM)97% (Oct 13, 7:53 AM)30.26 "Hg (Oct 13, 7:53 AM)
Low31 °F (Oct 19, 7:53 AM)32% (Oct 8, 4:53 PM)29.49 "Hg (Oct 17, 2:53 PM)
Average51 °F74%29.87 "Hg
* Reported Oct 4 10:53 PM — Oct 19 10:53 PM, Pontiac, Weather by CustomWeather, © 2014

Note: Actual official high and low records may vary slightly from our data, if they occured in-between our weather recording intervals... More about our weather records

Advertising

Pontiac weather history for previous 24 hours

 ConditionsComfort  
Time TempWeatherWind HumidityBarometerVisibility
10:53 PM
Oct 19
46 °FOvercast.6 mph63%29.97 "Hg10 mi
9:53 PM47 °FMostly cloudy.7 mph61%29.98 "Hg10 mi
8:53 PM47 °FOvercast.7 mph59%30.01 "Hg10 mi
7:53 PM48 °FOvercast.7 mph56%30.02 "Hg10 mi
6:53 PM49 °FMostly cloudy.5 mph52%30.04 "Hg10 mi
5:53 PM50 °FMostly cloudy.8 mph48%30.06 "Hg10 mi
4:53 PM51 °FPartly sunny.6 mph46%30.07 "Hg10 mi
3:53 PM50 °FOvercast.8 mph43%30.09 "Hg10 mi
2:53 PM49 °FOvercast.8 mph43%30.11 "Hg10 mi
1:53 PM48 °FPartly sunny.8 mph50%30.14 "Hg10 mi
12:53 PM45 °FPartly sunny.7 mph56%30.17 "Hg10 mi
11:53 AM42 °FPartly sunny.6 mph62%30.19 "Hg10 mi
10:53 AM40 °FPartly sunny.9 mph68%30.20 "Hg10 mi
9:53 AM37 °FPartly sunny.7 mph73%30.20 "Hg10 mi
8:53 AM33 °FScattered clouds.No wind85%30.19 "Hg10 mi
7:53 AM31 °FPassing clouds.5 mph85%30.18 "Hg10 mi
6:53 AM32 °FPassing clouds.8 mph85%30.18 "Hg10 mi
5:53 AM32 °FClear.7 mph85%30.17 "Hg10 mi
4:53 AM33 °FClear.7 mph85%30.16 "Hg10 mi
3:53 AM34 °FClear.7 mph82%30.14 "Hg10 mi
2:53 AM35 °FClear.8 mph82%30.14 "Hg10 mi
1:53 AM36 °FClear.7 mph79%30.13 "Hg10 mi
12:53 AM38 °FClear.9 mph76%30.12 "Hg10 mi
Weather by CustomWeather, © 2014

See weather overviewHow to use our weather pages